Regional Weather Roundup
Issued by NWS

Home | Current Version | Previous Version | Graphics & Text | Print | Product List | Glossary On
Versions: 1 2 3 4 5 6 7 8 9 10 11 12 13 14 15 16 17 18 19 20 21 22 23 24 25 26 27 28 29 30 31 32 33 34 35 36 37 38 39 40 41 42 43 44 45 46 47 48 49 50
000
ASUS43 KMKX 051600
RWRWI

WISCONSIN REGIONAL WEATHER ROUNDUP
NATIONAL WEATHER SERVICE MILWAUKEE/SULLIVAN WI
1100 AM CDT SAT SEP 05 2015

NOTE: "FAIR" INDICATES FEW OR NO CLOUDS BELOW 12,000 FEET WITH NO
SIGNIFICANT WEATHER AND/OR OBSTRUCTIONS TO VISIBILITY.

WIZ001-002-006>008-014>016-023>028-051700-
NORTHWEST WISCONSIN

CITY           SKY/WX    TMP DP  RH WIND       PRES   REMARKS
SUPERIOR ARPT  MOSUNNY   69  65  86 NE5       29.96S
ASHLAND        SUNNY     80  72  76 S5        29.99F HX  84
HAYWARD        MOSUNNY   78  68  71 S13       30.02S HX  80
SIREN          PTSUNNY   79  69  70 SE9       29.97F HX  82
CUMBERLAND     PTSUNNY   73  68  83 S10       30.01R
RICE LAKE      PTSUNNY   75  68  79 SE7       30.02F
CHETEK         PTSUNNY   77  70  81 SE9       30.01F
LADYSMITH      MOSUNNY   79  68  69 S9        30.06R HX  82
EAU CLAIRE     NOT AVBL
MENOMONIE      CLOUDY    77  71  84 E7        30.01S
NEW RICHMOND   CLOUDY    79  71  78 S7        29.98R HX  81
OSCEOLA        PTSUNNY   79  70  73 S10       29.99S HX  82
$$

WIZ003>005-009-010-017-018-051700-
NORTH CENTRAL WISCONSIN

CITY           SKY/WX    TMP DP  RH WIND       PRES   REMARKS
MANITOWISH WTR MOSUNNY   74  70  88 SE5       30.07S
ARBOR VITAE    MOSUNNY   76  71  85 S5        30.08S
WOODRUFF       MOSUNNY   76  71  85 S5        30.08S
RHINELANDER    MOSUNNY   77  69  76 SW5       30.09S
EAGLE RIVER    PTSUNNY   74  68  81 W5        30.09R
LAND O LAKES   MOSUNNY   75  67  77 SW7       30.10R
PHILLIPS       PTSUNNY   78  70  76 SE5       30.06R
TOMAHAWK       SUNNY     75  68  79 SE3       30.08S
MEDFORD        MOSUNNY   74  69  83 SE5       30.07S
MERRILL        SUNNY     76  69  80 S3        30.08F
$$

WIZ029-030-035-036-043>047-051700-
CENTRAL WISCONSIN

CITY           SKY/WX    TMP DP  RH WIND       PRES   REMARKS
WAUSAU         SUNNY     75  68  78 S6        30.07S
MOSINEE        SUNNY     77  72  83 VRB5      30.09F
MARSHFIELD     MOSUNNY   78  66  66 SE7       30.07S HX  80
STEVENS POINT  MOSUNNY   75  68  78 SE7       30.08S
WAUPACA        PTSUNNY   79  70  74 SE5       30.09R HX  82
WAUTOMA        NOT AVBL
WISC RAPIDS    SUNNY     82  67  60 SE6       30.08S HX  84
CAMP DOUGLAS   NOT AVBL
$$

WIZ011>013-019>022-031-037>040-048>050-051700-
NORTHEAST WISCONSIN

CITY           SKY/WX    TMP DP  RH WIND       PRES   REMARKS
ANTIGO         PTSUNNY   73  68  84 SE6       30.10S
SHAWANO        NOT AVBL
OCONTO         CLOUDY    68  68 100 CALM      30.09S
STURGEON BAY   CLOUDY    70  66  88 S8        30.12S
GREEN BAY      PTSUNNY   76  67  73 SE5       30.09S
MANITOWOC      NOT AVBL
APPLETON       MOSUNNY   75  66  73 SE6       30.08S
CLINTONVILLE   MOSUNNY   77  66  69 S6        30.08R
OSHKOSH        SUNNY     77  69  76 S5        30.08S
$$

WIZ032>034-041-042-053>061-051700-
SOUTHWEST WISCONSIN

CITY           SKY/WX    TMP DP  RH WIND       PRES   REMARKS
LA CROSSE      CLOUDY    80  70  71 S8        30.02S HX  83
SPARTA         MOSUNNY   81  64  57 S5        30.05S HX  83
VIROQUA        CLOUDY    78  69  73 SW7       30.07R HX  80
BOSCOBEL       PTSUNNY   79  70  74 SW7       30.05S HX  82
PRAIRIE DU CHI MOSUNNY   82  71  70 CALM      30.04S HX  86
PLATTEVILLE    MOSUNNY   77  74  90 S8        30.08S
$$

WIZ056-057-062-063-064-067-068-051700-
SOUTH CENTRAL WISCONSIN

CITY           SKY/WX    TMP DP  RH WIND       PRES   REMARKS
REEDSBURG      PTSUNNY   79  70  74 SE3       30.07R HX  82
BARABOO/DELLS  PTSUNNY   79  69  70 E3        30.08R HX  82
LONE ROCK      NOT AVBL
MINERAL POINT  CLOUDY    75  72  88 S6        30.09R FOG
MADISON        PTSUNNY   81  67  62 SE3       30.08R HX  83
MIDDLETON      PTSUNNY   80  68  67 SE7       30.09R HX  82
WATERTOWN      SUNNY     78  74  88 SE3       30.09S
MONROE         CLOUDY    72  70  94 SE3       30.10R FOG
JANESVILLE     MOSUNNY   82  72  69 S7        30.09R HX  87
$$

WIZ051-052-058>065-066-070>072-051700-
SOUTHEAST WISCONSIN

CITY           SKY/WX    TMP DP  RH WIND       PRES   REMARKS
MILWAUKEE      CLOUDY    70  66  87 E7        30.11R
WAUKESHA       MOSUNNY   72  68  88 SE3       30.12R
MILWAUKEE/TIMM PTSUNNY   73  66  78 CALM      30.11R
RACINE         CLOUDY    73  67  81 NE8       30.13R
BURLINGTON     SUNNY     76  68  76 CALM      30.11R
KENOSHA        PTSUNNY   80  70  71 W6        30.11R HX  83
FOND DU LAC    SUNNY     78  70  76 SE3       30.09S HX  80
SHEBOYGAN      MOSUNNY   75  69  81 SE3       30.10S
WEST BEND      CLOUDY    70  64  83 CALM      30.11R HAZE
JUNEAU         SUNNY     74  69  83 SE5       30.11R
$$

LSZ147-162-051700-
LAKE SUPERIOR

STATION/POSITION TIME  TEMP    WIND        PRES    WAVE
                       AIR SEA DIR/SP/G            HT/PER
                 (UTC) (F)     (DEG/KT/KT) (MB)    (FT/S)
W MID LAKE BUOY  1450   63 57   60/  4/  6 1016.2R   1/ 3
DEVILS ISLAND    1500   67      40/  4/  6 1015.4F
PORT WING        1500           10/  1/  8 1014.9F
SAXON HARBOR     1500   78     210/  5/  8 1015.2F
$$

LMZ867-665-643>646-051700-
LAKE MICHIGAN

STATION/POSITION TIME  TEMP    WIND        PRES    WAVE
                       AIR SEA DIR/SP/G            HT/PER
                 (UTC) (F)     (DEG/KT/KT) (MB)    (FT/S)
CHAMBERS ISLAND  1500   69      60/  4/  5 1018.6F
S GREEN BAY BUOY 1500   65 68   60/  2/  4 1020.2F
N MID LAKE BUOY  1450   66 67  270/  4/  6 1018.5F   0
NORTHPORT PIER   1500   67     330/  3/  4 1018.6F
SISTER BAY       1526   69        CALM       N/A
ALGOMA LAKESHORE 1514          180/  6/  7   N/A
KEWAUNEE LAKESHO 1500   62     170/  7/  7 1018.3R
SHEBOYGAN LAKESH 1500   62     150/  7/  7 1019.6R
PORT WASHINGTON  1540   65     160/  3/  4 1020.0S
ATWATER BUOY     1500   60 60  320/  4/  6 1020.8R
MILWAUKEE LAKESH 1510   64      30/  6/  6   N/A
S MID LAKE BUOY  1450   71 71  190/ 10/ 12 1018.4R   0
KENOSHA   LAKESH 1500   68     160/  3/  4 1019.0R
$$

TC  - TEMPERATURE IN CELSIUS
VSB - VISIBILITY IN STATUTE MILES
WCI - WIND CHILL INDEX
HX  - HEAT INDEX



USA.gov is the U.S. government's official web portal to all federal, state and local government web resources and services.